Location: Unspecified
(0.0000°N, 0.0000°E)
Time: 17:11:12
(UTC+00:00)

Vanguard 3 - Pass Details

Date: 05 February 2023
Orbit: 509 x 3249 km, 33.3° (Epoch: 20 March)

Event Time Altitude Azimuth Distance (km) Brightness Sun altitude
Rises 21:10:54 0° 328° (NNW) 5,360 11.4 -42.2°
Reaches altitude 10° 21:16:31 10° 349° (NNW) 4,907 11.0 -43.5°
Enters shadow 21:17:44 12° 354° (N) 4,867 10.9 -43.7°
Maximum altitude 21:24:42 16° 23° (NNE) 5,020 - -45.3°
Drops below altitude 10° 21:34:28 10° 55° (NE) 6,024 - -47.6°
Sets 21:42:50 0° 73° (ENE) 7,209 - -49.5°
